M I D A S
Marine Information and Data Acquisition System
Tripno 1358 of the Zeeleeuw from 2007-09-27 06:33:04 to 2007-09-27 14:06:36
Back to CruiseResearch ActivitiesStationsMapUnderway DataData graphs

EquipmentUnitsComment
TimeDGPSUTC
LatitudeDGPSDM.mWGS84
LongitudeDGPSDM.mWGS84
TemperatureSBE03/SBE38deg celciusITS90
ConductivitySBE21S/mITS90
SalinitySBE21 Practical Salinity Units
ChlorophylAChelsea fluorimeterg/lCalibrated in Aceton
Missing or incorrect values are displayed as -999
Sea surface data collected by the RV Zeeleeuw from 2007-09-27 06:35:30 to 2007-09-27 14:17:11
Time Latitude Longitude Temperature Conductivity Salinity ChlorophylA
2007-09-27 06:36:36 51°13.62 2°56.027 -999 -999 -999 -999
2007-09-27 06:37:36 51°13.657 2°55.902 -999 -999 -999 -999
2007-09-27 06:38:36 51°13.712 2°55.779 -999 -999 -999 -999
2007-09-27 06:39:36 51°13.755 2°55.725 -999 -999 -999 -999
2007-09-27 06:40:36 51°13.781 2°55.691 -999 -999 -999 -999
2007-09-27 06:41:36 51°13.838 2°55.639 -999 -999 -999 -999
2007-09-27 06:42:36 51°13.903 2°55.604 -999 -999 -999 -999
2007-09-27 06:43:35 51°13.95 2°55.602 -999 -999 -999 -999
2007-09-27 06:44:36 51°13.979 2°55.616 -999 -999 -999 -999
2007-09-27 06:45:35 51°13.991 2°55.627 -999 -999 -999 -999
2007-09-27 06:46:36 51°13.995 2°55.622 -999 -999 -999 -999
2007-09-27 06:47:35 51°13.999 2°55.619 -999 -999 -999 -999
2007-09-27 06:48:35 51°14.002 2°55.617 -999 -999 -999 -999
2007-09-27 06:49:35 51°14.005 2°55.614 -999 -999 -999 -999
2007-09-27 06:50:36 51°14.007 2°55.613 -999 -999 -999 -999
2007-09-27 06:51:35 51°14.007 2°55.616 -999 -999 -999 -999
2007-09-27 06:52:35 51°14.005 2°55.624 -999 -999 -999 -999
2007-09-27 06:53:36 51°14.002 2°55.635 -999 -999 -999 -999
2007-09-27 06:54:35 51°14.009 2°55.62 -999 -999 -999 -999
2007-09-27 06:55:36 51°14.059 2°55.5 -999 -999 -999 -999
2007-09-27 06:56:36 51°14.164 2°55.381 -999 -999 -999 -999
2007-09-27 06:57:35 51°14.285 2°55.218 -999 -999 -999 -999
2007-09-27 06:58:35 51°14.39 2°54.984 -999 -999 -999 -999
2007-09-27 06:59:35 51°14.407 2°54.663 -999 -999 -999 -999
2007-09-27 07:00:34 51°14.334 2°54.336 -999 -999 -999 -999
2007-09-27 07:01:32 51°14.22 2°54.032 -999 -999 -999 -999
2007-09-27 07:02:32 51°14.101 2°53.715 -999 -999 -999 -999
2007-09-27 07:03:32 51°13.989 2°53.387 -999 -999 -999 -999
2007-09-27 07:04:32 51°13.871 2°53.059 -999 -999 -999 -999
2007-09-27 07:05:32 51°13.754 2°52.728 -999 -999 -999 -999
2007-09-27 07:06:32 51°13.633 2°52.398 -999 -999 -999 -999
2007-09-27 07:07:32 51°13.513 2°52.067 -999 -999 -999 -999
2007-09-27 07:08:32 51°13.392 2°51.735 -999 -999 -999 -999
2007-09-27 07:09:32 51°13.271 2°51.402 -999 -999 -999 -999
2007-09-27 07:10:32 51°13.153 2°51.064 -999 -999 -999 -999
2007-09-27 07:11:32 51°13.033 2°50.728 -999 -999 -999 -999
2007-09-27 07:12:32 51°12.913 2°50.39 -999 -999 -999 -999
2007-09-27 07:13:32 51°12.788 2°50.058 -999 -999 -999 -999
2007-09-27 07:14:32 51°12.661 2°49.727 -999 -999 -999 -999
2007-09-27 07:15:32 51°12.536 2°49.396 -999 -999 -999 -999
2007-09-27 07:16:32 51°12.412 2°49.061 -999 -999 -999 -999
2007-09-27 07:17:32 51°12.293 2°48.724 -999 -999 -999 -999
2007-09-27 07:18:32 51°12.177 2°48.389 -999 -999 -999 -999
2007-09-27 07:19:32 51°12.106 2°48.026 -999 -999 -999 -999
2007-09-27 07:20:32 51°12.037 2°47.657 -999 -999 -999 -999
2007-09-27 07:21:32 51°11.97 2°47.285 -999 -999 -999 -999
2007-09-27 07:22:32 51°11.915 2°46.91 -999 -999 -999 -999
2007-09-27 07:23:32 51°11.865 2°46.533 -999 -999 -999 -999
2007-09-27 07:24:32 51°11.812 2°46.159 -999 -999 -999 -999
2007-09-27 07:25:32 51°11.763 2°45.782 -999 -999 -999 -999
2007-09-27 07:26:32 51°11.713 2°45.406 -999 -999 -999 -999
2007-09-27 07:27:32 51°11.666 2°45.03 -999 -999 -999 -999
2007-09-27 07:28:32 51°11.617 2°44.656 -999 -999 -999 -999
2007-09-27 07:29:32 51°11.581 2°44.282 -999 -999 -999 -999
2007-09-27 07:30:32 51°11.553 2°43.919 -999 -999 -999 -999
2007-09-27 07:31:32 51°11.529 2°43.573 -999 -999 -999 -999
2007-09-27 07:32:32 51°11.506 2°43.227 -999 -999 -999 -999
2007-09-27 07:33:32 51°11.479 2°42.88 -999 -999 -999 -999
2007-09-27 07:34:32 51°11.456 2°42.535 -999 -999 -999 -999
2007-09-27 07:35:32 51°11.431 2°42.186 -999 -999 -999 -999
2007-09-27 07:36:32 51°11.398 2°41.835 -999 -999 -999 -999
2007-09-27 07:37:32 51°11.333 2°41.485 -999 -999 -999 -999
2007-09-27 07:38:32 51°11.253 2°41.141 -999 -999 -999 -999
2007-09-27 07:39:32 51°11.117 2°40.838 -999 -999 -999 -999
2007-09-27 07:40:32 51°10.968 2°40.543 -999 -999 -999 -999
2007-09-27 07:41:32 51°10.818 2°40.25 -999 -999 -999 -999
2007-09-27 07:42:32 51°10.686 2°39.984 -999 -999 -999 -999
2007-09-27 07:43:32 51°10.617 2°39.832 -999 -999 -999 -999
2007-09-27 07:44:32 51°10.566 2°39.735 -999 -999 -999 -999
2007-09-27 07:45:32 51°10.523 2°39.651 -999 -999 -999 -999
2007-09-27 07:46:32 51°10.496 2°39.56 -999 -999 -999 -999
2007-09-27 07:47:32 51°10.477 2°39.485 -999 -999 -999 -999
2007-09-27 07:48:32 51°10.459 2°39.421 -999 -999 -999 -999
2007-09-27 07:49:32 51°10.441 2°39.366 -999 -999 -999 -999
2007-09-27 07:50:32 51°10.421 2°39.318 -999 -999 -999 -999
2007-09-27 07:51:32 51°10.401 2°39.273 -999 -999 -999 -999
2007-09-27 07:52:32 51°10.378 2°39.231 -999 -999 -999 -999
2007-09-27 07:53:32 51°10.353 2°39.189 -999 -999 -999 -999
2007-09-27 07:54:32 51°10.329 2°39.147 -999 -999 -999 -999
2007-09-27 07:55:32 51°10.306 2°39.103 -999 -999 -999 -999
2007-09-27 07:56:32 51°10.282 2°39.056 -999 -999 -999 -999
2007-09-27 07:57:32 51°10.258 2°39.011 -999 -999 -999 -999
2007-09-27 07:58:32 51°10.235 2°38.967 -999 -999 -999 -999
2007-09-27 07:59:32 51°10.211 2°38.923 -999 -999 -999 -999
2007-09-27 08:00:32 51°10.202 2°38.814 -999 -999 -999 -999
2007-09-27 08:01:32 51°10.223 2°38.701 -999 -999 -999 -999
2007-09-27 08:02:32 51°10.257 2°38.61 -999 -999 -999 -999
2007-09-27 08:03:32 51°10.276 2°38.494 -999 -999 -999 -999
2007-09-27 08:04:32 51°10.288 2°38.373 -999 -999 -999 -999
2007-09-27 08:05:32 51°10.284 2°38.247 -999 -999 -999 -999
2007-09-27 08:06:32 51°10.279 2°38.118 -999 -999 -999 -999
2007-09-27 08:07:32 51°10.268 2°37.991 -999 -999 -999 -999
2007-09-27 08:08:32 51°10.246 2°37.859 -999 -999 -999 -999
2007-09-27 08:09:32 51°10.215 2°37.734 -999 -999 -999 -999
2007-09-27 08:10:32 51°10.169 2°37.616 -999 -999 -999 -999
2007-09-27 08:11:32 51°10.144 2°37.495 -999 -999 -999 -999
2007-09-27 08:12:32 51°10.142 2°37.382 -999 -999 -999 -999
2007-09-27 08:13:32 51°10.149 2°37.295 -999 -999 -999 -999
2007-09-27 08:14:32 51°10.168 2°37.2 -999 -999 -999 -999
2007-09-27 08:15:32 51°10.17 2°37.076 -999 -999 -999 -999
2007-09-27 08:16:32 51°10.171 2°36.955 -999 -999 -999 -999
2007-09-27 08:17:32 51°10.163 2°36.839 -999 -999 -999 -999
2007-09-27 08:18:32 51°10.138 2°36.719 -999 -999 -999 -999
2007-09-27 08:19:32 51°10.09 2°36.607 -999 -999 -999 -999
2007-09-27 08:20:32 51°10.042 2°36.492 -999 -999 -999 -999
2007-09-27 08:21:32 51°9.999 2°36.384 -999 -999 -999 -999
2007-09-27 08:22:32 51°9.96 2°36.276 -999 -999 -999 -999
2007-09-27 08:23:32 51°9.928 2°36.164 -999 -999 -999 -999
2007-09-27 08:24:32 51°9.9 2°36.05 -999 -999 -999 -999
2007-09-27 08:25:32 51°9.88 2°35.937 -999 -999 -999 -999
2007-09-27 08:26:32 51°9.858 2°35.817 -999 -999 -999 -999
2007-09-27 08:27:32 51°9.833 2°35.693 -999 -999 -999 -999
2007-09-27 08:28:32 51°9.808 2°35.568 -999 -999 -999 -999
2007-09-27 08:29:32 51°9.784 2°35.445 -999 -999 -999 -999
2007-09-27 08:30:32 51°9.764 2°35.327 -999 -999 -999 -999
2007-09-27 08:31:32 51°9.757 2°35.22 -999 -999 -999 -999
2007-09-27 08:32:32 51°9.757 2°35.125 -999 -999 -999 -999
2007-09-27 08:33:32 51°9.764 2°35.045 -999 -999 -999 -999
2007-09-27 08:34:32 51°9.775 2°34.973 -999 -999 -999 -999
2007-09-27 08:35:32 51°9.783 2°34.911 -999 -999 -999 -999
2007-09-27 08:36:32 51°9.781 2°34.862 -999 -999 -999 -999
2007-09-27 08:37:32 51°9.768 2°34.816 -999 -999 -999 -999
2007-09-27 08:38:32 51°9.749 2°34.777 -999 -999 -999 -999
2007-09-27 08:39:32 51°9.725 2°34.74 -999 -999 -999 -999
2007-09-27 08:40:32 51°9.702 2°34.704 -999 -999 -999 -999
2007-09-27 08:41:32 51°9.68 2°34.664 -999 -999 -999 -999
2007-09-27 08:42:32 51°9.694 2°34.595 -999 -999 -999 -999
2007-09-27 08:43:32 51°9.738 2°34.621 -999 -999 -999 -999
2007-09-27 08:44:32 51°9.825 2°34.742 -999 -999 -999 -999
2007-09-27 08:45:32 51°9.928 2°34.883 -999 -999 -999 -999
2007-09-27 08:46:32 51°10.032 2°35.023 -999 -999 -999 -999
2007-09-27 08:47:32 51°10.155 2°35.159 -999 -999 -999 -999
2007-09-27 08:48:32 51°10.29 2°35.31 -999 -999 -999 -999
2007-09-27 08:49:32 51°10.433 2°35.469 -999 -999 -999 -999
2007-09-27 08:50:32 51°10.575 2°35.629 -999 -999 -999 -999
2007-09-27 08:51:32 51°10.713 2°35.787 -999 -999 -999 -999
2007-09-27 08:52:32 51°10.852 2°35.946 -999 -999 -999 -999
2007-09-27 08:53:32 51°10.993 2°36.107 -999 -999 -999 -999
2007-09-27 08:54:32 51°11.134 2°36.27 -999 -999 -999 -999
2007-09-27 08:55:32 51°11.274 2°36.435 -999 -999 -999 -999
2007-09-27 08:56:32 51°11.417 2°36.596 -999 -999 -999 -999
2007-09-27 08:57:32 51°11.563 2°36.743 -999 -999 -999 -999
2007-09-27 08:58:33 51°11.713 2°36.894 -999 -999 -999 -999
2007-09-27 08:59:32 51°11.855 2°37.039 -999 -999 -999 -999
2007-09-27 09:00:32 51°11.999 2°37.188 -999 -999 -999 -999
2007-09-27 09:01:32 51°12.143 2°37.335 -999 -999 -999 -999
2007-09-27 09:02:32 51°12.284 2°37.48 -999 -999 -999 -999
2007-09-27 09:03:32 51°12.428 2°37.623 -999 -999 -999 -999
2007-09-27 09:04:32 51°12.575 2°37.757 -999 -999 -999 -999
2007-09-27 09:05:33 51°12.725 2°37.896 -999 -999 -999 -999
2007-09-27 09:06:32 51°12.871 2°38.031 -999 -999 -999 -999
2007-09-27 09:07:32 51°13.017 2°38.172 -999 -999 -999 -999
2007-09-27 09:08:32 51°13.167 2°38.31 -999 -999 -999 -999
2007-09-27 09:09:32 51°13.312 2°38.445 -999 -999 -999 -999
2007-09-27 09:10:32 51°13.465 2°38.589 -999 -999 -999 -999
2007-09-27 09:11:32 51°13.617 2°38.728 -999 -999 -999 -999
2007-09-27 09:12:32 51°13.794 2°38.773 -999 -999 -999 -999
2007-09-27 09:13:32 51°13.97 2°38.723 -999 -999 -999 -999
2007-09-27 09:14:32 51°14.097 2°38.518 -999 -999 -999 -999
2007-09-27 09:15:32 51°14.103 2°38.178 -999 -999 -999 -999
2007-09-27 09:16:32 51°14.049 2°37.825 -999 -999 -999 -999
2007-09-27 09:17:32 51°13.945 2°37.491 -999 -999 -999 -999
2007-09-27 09:18:32 51°13.841 2°37.155 -999 -999 -999 -999
2007-09-27 09:19:32 51°13.737 2°36.819 -999 -999 -999 -999
2007-09-27 09:20:32 51°13.633 2°36.482 -999 -999 -999 -999
2007-09-27 09:21:32 51°13.531 2°36.146 -999 -999 -999 -999
2007-09-27 09:22:32 51°13.428 2°35.808 -999 -999 -999 -999
2007-09-27 09:23:32 51°13.325 2°35.466 -999 -999 -999 -999
2007-09-27 09:24:32 51°13.222 2°35.129 -999 -999 -999 -999
2007-09-27 09:25:32 51°13.12 2°34.796 -999 -999 -999 -999
2007-09-27 09:26:32 51°13.018 2°34.465 -999 -999 -999 -999
2007-09-27 09:27:32 51°12.916 2°34.13 -999 -999 -999 -999
2007-09-27 09:28:32 51°12.814 2°33.802 -999 -999 -999 -999
2007-09-27 09:29:32 51°12.711 2°33.477 -999 -999 -999 -999
2007-09-27 09:30:32 51°12.607 2°33.154 -999 -999 -999 -999
2007-09-27 09:31:32 51°12.503 2°32.829 -999 -999 -999 -999
2007-09-27 09:32:32 51°12.402 2°32.514 -999 -999 -999 -999
2007-09-27 09:33:33 51°12.3 2°32.186 -999 -999 -999 -999
2007-09-27 09:34:32 51°12.198 2°31.871 -999 -999 -999 -999
2007-09-27 09:35:33 51°12.092 2°31.544 -999 -999 -999 -999
2007-09-27 09:36:32 51°11.986 2°31.231 -999 -999 -999 -999
2007-09-27 09:37:32 51°11.878 2°30.908 -999 -999 -999 -999
2007-09-27 09:38:32 51°11.773 2°30.585 -999 -999 -999 -999
2007-09-27 09:39:32 51°11.687 2°30.251 -999 -999 -999 -999
2007-09-27 09:40:32 51°11.605 2°29.914 -999 -999 -999 -999
2007-09-27 09:41:32 51°11.525 2°29.58 -999 -999 -999 -999
2007-09-27 09:42:33 51°11.442 2°29.235 -999 -999 -999 -999
2007-09-27 09:43:32 51°11.379 2°28.894 -999 -999 -999 -999
2007-09-27 09:44:33 51°11.338 2°28.537 -999 -999 -999 -999
2007-09-27 09:45:32 51°11.347 2°28.197 -999 -999 -999 -999
2007-09-27 09:46:32 51°11.364 2°27.854 -999 -999 -999 -999
2007-09-27 09:47:33 51°11.46 2°27.57 -999 -999 -999 -999
2007-09-27 09:48:32 51°11.622 2°27.455 -999 -999 -999 -999
2007-09-27 09:49:33 51°11.807 2°27.453 -999 -999 -999 -999
2007-09-27 09:50:33 51°11.965 2°27.414 -999 -999 -999 -999
2007-09-27 09:51:33 51°12.132 2°27.387 -999 -999 -999 -999
2007-09-27 09:52:33 51°12.304 2°27.439 -999 -999 -999 -999
2007-09-27 09:53:33 51°12.467 2°27.551 -999 -999 -999 -999
2007-09-27 09:54:32 51°12.636 2°27.657 -999 -999 -999 -999
2007-09-27 09:55:32 51°12.804 2°27.776 -999 -999 -999 -999
2007-09-27 09:56:32 51°12.964 2°27.92 -999 -999 -999 -999
2007-09-27 09:57:33 51°13.133 2°28.061 -999 -999 -999 -999
2007-09-27 09:58:32 51°13.297 2°28.194 -999 -999 -999 -999
2007-09-27 09:59:32 51°13.46 2°28.337 -999 -999 -999 -999
2007-09-27 10:00:33 51°13.604 2°28.501 -999 -999 -999 -999
2007-09-27 10:01:33 51°13.755 2°28.667 -999 -999 -999 -999
2007-09-27 10:02:33 51°13.903 2°28.83 -999 -999 -999 -999
2007-09-27 10:03:33 51°14.054 2°29.005 -999 -999 -999 -999
2007-09-27 10:04:33 51°14.204 2°29.189 -999 -999 -999 -999
2007-09-27 10:05:33 51°14.352 2°29.37 -999 -999 -999 -999
2007-09-27 10:06:32 51°14.493 2°29.553 -999 -999 -999 -999
2007-09-27 10:07:33 51°14.641 2°29.74 -999 -999 -999 -999
2007-09-27 10:08:32 51°14.783 2°29.92 -999 -999 -999 -999
2007-09-27 10:09:32 51°14.932 2°30.103 -999 -999 -999 -999
2007-09-27 10:10:32 51°15.082 2°30.28 -999 -999 -999 -999
2007-09-27 10:11:33 51°15.232 2°30.465 -999 -999 -999 -999
2007-09-27 10:12:32 51°15.378 2°30.647 -999 -999 -999 -999
2007-09-27 10:13:32 51°15.52 2°30.834 -999 -999 -999 -999
2007-09-27 10:14:32 51°15.661 2°31.031 -999 -999 -999 -999
2007-09-27 10:15:32 51°15.782 2°31.263 -999 -999 -999 -999
2007-09-27 10:16:32 51°15.844 2°31.556 -999 -999 -999 -999
2007-09-27 10:17:32 51°15.903 2°31.856 -999 -999 -999 -999
2007-09-27 10:18:32 51°15.916 2°32.171 -999 -999 -999 -999
2007-09-27 10:19:32 51°15.917 2°32.49 -999 -999 -999 -999
2007-09-27 10:20:32 51°15.911 2°32.81 -999 -999 -999 -999
2007-09-27 10:21:32 51°15.887 2°33.126 -999 -999 -999 -999
2007-09-27 10:22:32 51°15.864 2°33.451 -999 -999 -999 -999
2007-09-27 10:23:32 51°15.83 2°33.773 -999 -999 -999 -999
2007-09-27 10:24:32 51°15.795 2°34.084 -999 -999 -999 -999
2007-09-27 10:25:32 51°15.751 2°34.392 -999 -999 -999 -999
2007-09-27 10:26:32 51°15.706 2°34.691 -999 -999 -999 -999
2007-09-27 10:27:32 51°15.668 2°34.986 -999 -999 -999 -999
2007-09-27 10:28:33 51°15.629 2°35.287 -999 -999 -999 -999
2007-09-27 10:29:32 51°15.594 2°35.582 -999 -999 -999 -999
2007-09-27 10:30:32 51°15.56 2°35.889 -999 -999 -999 -999
2007-09-27 10:31:32 51°15.527 2°36.197 -999 -999 -999 -999
2007-09-27 10:32:32 51°15.492 2°36.508 -999 -999 -999 -999
2007-09-27 10:33:32 51°15.463 2°36.823 -999 -999 -999 -999
2007-09-27 10:34:32 51°15.433 2°37.145 -999 -999 -999 -999
2007-09-27 10:35:32 51°15.4 2°37.47 -999 -999 -999 -999
2007-09-27 10:36:32 51°15.369 2°37.794 -999 -999 -999 -999
2007-09-27 10:37:32 51°15.336 2°38.119 -999 -999 -999 -999
2007-09-27 10:38:32 51°15.343 2°38.437 -999 -999 -999 -999
2007-09-27 10:39:32 51°15.379 2°38.747 -999 -999 -999 -999
2007-09-27 10:40:32 51°15.458 2°39.023 -999 -999 -999 -999
2007-09-27 10:41:33 51°15.547 2°39.296 -999 -999 -999 -999
2007-09-27 10:42:32 51°15.632 2°39.564 -999 -999 -999 -999
2007-09-27 10:43:32 51°15.725 2°39.836 -999 -999 -999 -999
2007-09-27 10:44:32 51°15.838 2°40.076 -999 -999 -999 -999
2007-09-27 10:45:32 51°15.997 2°40.231 -999 -999 -999 -999
2007-09-27 10:46:33 51°16.16 2°40.382 -999 -999 -999 -999
2007-09-27 10:47:32 51°16.319 2°40.526 -999 -999 -999 -999
2007-09-27 10:48:32 51°16.484 2°40.673 -999 -999 -999 -999
2007-09-27 10:49:32 51°16.656 2°40.816 -999 -999 -999 -999
2007-09-27 10:50:32 51°16.831 2°40.96 -999 -999 -999 -999
2007-09-27 10:51:32 51°17.003 2°41.105 -999 -999 -999 -999
2007-09-27 10:52:33 51°17.181 2°41.226 -999 -999 -999 -999
2007-09-27 10:53:32 51°17.359 2°41.346 -999 -999 -999 -999
2007-09-27 10:54:32 51°17.546 2°41.467 -999 -999 -999 -999
2007-09-27 10:55:33 51°17.727 2°41.566 -999 -999 -999 -999
2007-09-27 10:56:32 51°17.913 2°41.542 -999 -999 -999 -999
2007-09-27 10:57:33 51°18.108 2°41.455 -999 -999 -999 -999
2007-09-27 10:58:32 51°18.278 2°41.382 -999 -999 -999 -999
2007-09-27 10:59:33 51°18.46 2°41.308 -999 -999 -999 -999
2007-09-27 11:00:32 51°18.614 2°41.155 -999 -999 -999 -999
2007-09-27 11:01:32 51°18.759 2°40.96 -999 -999 -999 -999
2007-09-27 11:02:32 51°18.9 2°40.763 -999 -999 -999 -999
2007-09-27 11:03:32 51°19.046 2°40.568 -999 -999 -999 -999
2007-09-27 11:04:32 51°19.185 2°40.381 -999 -999 -999 -999
2007-09-27 11:05:32 51°19.328 2°40.19 -999 -999 -999 -999
2007-09-27 11:06:33 51°19.471 2°39.981 -999 -999 -999 -999
2007-09-27 11:07:33 51°19.607 2°39.773 -999 -999 -999 -999
2007-09-27 11:08:33 51°19.746 2°39.566 -999 -999 -999 -999
2007-09-27 11:09:33 51°19.89 2°39.363 -999 -999 -999 -999
2007-09-27 11:10:33 51°20.033 2°39.159 -999 -999 -999 -999
2007-09-27 11:11:33 51°20.172 2°38.958 -999 -999 -999 -999
2007-09-27 11:12:33 51°20.308 2°38.761 -999 -999 -999 -999
2007-09-27 11:13:33 51°20.449 2°38.559 -999 -999 -999 -999
2007-09-27 11:14:33 51°20.588 2°38.361 -999 -999 -999 -999
2007-09-27 11:15:33 51°20.725 2°38.162 -999 -999 -999 -999
2007-09-27 11:16:32 51°20.863 2°37.969 -999 -999 -999 -999
2007-09-27 11:17:32 51°21.007 2°37.77 -999 -999 -999 -999
2007-09-27 11:18:33 51°21.168 2°37.601 -999 -999 -999 -999
2007-09-27 11:19:33 51°21.353 2°37.553 -999 -999 -999 -999
2007-09-27 11:20:33 51°21.549 2°37.532 -999 -999 -999 -999
2007-09-27 11:21:33 51°21.738 2°37.518 -999 -999 -999 -999
2007-09-27 11:22:33 51°21.93 2°37.493 -999 -999 -999 -999
2007-09-27 11:23:33 51°22.119 2°37.503 -999 -999 -999 -999
2007-09-27 11:24:33 51°22.31 2°37.51 -999 -999 -999 -999
2007-09-27 11:25:33 51°22.503 2°37.517 -999 -999 -999 -999
2007-09-27 11:26:33 51°22.702 2°37.517 -999 -999 -999 -999
2007-09-27 11:27:33 51°22.896 2°37.512 -999 -999 -999 -999
2007-09-27 11:28:32 51°23.091 2°37.511 -999 -999 -999 -999
2007-09-27 11:29:32 51°23.273 2°37.607 -999 -999 -999 -999
2007-09-27 11:30:33 51°23.451 2°37.76 -999 -999 -999 -999
2007-09-27 11:31:33 51°23.631 2°37.905 -999 -999 -999 -999
2007-09-27 11:32:33 51°23.809 2°38.05 -999 -999 -999 -999
2007-09-27 11:33:33 51°23.945 2°38.289 -999 -999 -999 -999
2007-09-27 11:34:33 51°24.063 2°38.558 -999 -999 -999 -999
2007-09-27 11:35:32 51°24.184 2°38.82 -999 -999 -999 -999
2007-09-27 11:36:33 51°24.31 2°39.089 -999 -999 -999 -999
2007-09-27 11:37:32 51°24.419 2°39.365 -999 -999 -999 -999
2007-09-27 11:38:33 51°24.53 2°39.65 -999 -999 -999 -999
2007-09-27 11:39:33 51°24.639 2°39.939 -999 -999 -999 -999
2007-09-27 11:40:32 51°24.744 2°40.22 -999 -999 -999 -999
2007-09-27 11:41:32 51°24.854 2°40.509 -999 -999 -999 -999
2007-09-27 11:42:32 51°24.967 2°40.792 -999 -999 -999 -999
2007-09-27 11:43:32 51°25.078 2°41.081 -999 -999 -999 -999
2007-09-27 11:44:32 51°25.19 2°41.367 -999 -999 -999 -999
2007-09-27 11:45:32 51°25.29 2°41.666 -999 -999 -999 -999
2007-09-27 11:46:32 51°25.376 2°41.98 -999 -999 -999 -999
2007-09-27 11:47:32 51°25.454 2°42.298 -999 -999 -999 -999
2007-09-27 11:48:32 51°25.527 2°42.621 -999 -999 -999 -999
2007-09-27 11:49:32 51°25.601 2°42.949 -999 -999 -999 -999
2007-09-27 11:50:32 51°25.672 2°43.278 -999 -999 -999 -999
2007-09-27 11:51:32 51°25.745 2°43.609 -999 -999 -999 -999
2007-09-27 11:52:32 51°25.82 2°43.939 -999 -999 -999 -999
2007-09-27 11:53:32 51°25.895 2°44.271 -999 -999 -999 -999
2007-09-27 11:54:32 51°25.969 2°44.6 -999 -999 -999 -999
2007-09-27 11:55:32 51°26.039 2°44.93 -999 -999 -999 -999
2007-09-27 11:56:32 51°26.116 2°45.255 -999 -999 -999 -999
2007-09-27 11:57:32 51°26.193 2°45.584 -999 -999 -999 -999
2007-09-27 11:58:32 51°26.271 2°45.911 -999 -999 -999 -999
2007-09-27 11:59:32 51°26.351 2°46.237 -999 -999 -999 -999
2007-09-27 12:00:32 51°26.432 2°46.564 -999 -999 -999 -999
2007-09-27 12:01:32 51°26.511 2°46.892 -999 -999 -999 -999
2007-09-27 12:02:32 51°26.588 2°47.224 -999 -999 -999 -999
2007-09-27 12:03:32 51°26.668 2°47.553 -999 -999 -999 -999
2007-09-27 12:04:32 51°26.746 2°47.882 -999 -999 -999 -999
2007-09-27 12:05:32 51°26.821 2°48.211 -999 -999 -999 -999
2007-09-27 12:06:33 51°26.896 2°48.547 -999 -999 -999 -999
2007-09-27 12:07:32 51°26.969 2°48.872 -999 -999 -999 -999
2007-09-27 12:08:32 51°27.042 2°49.201 -999 -999 -999 -999
2007-09-27 12:09:33 51°27.115 2°49.535 -999 -999 -999 -999
2007-09-27 12:10:33 51°27.188 2°49.867 -999 -999 -999 -999
2007-09-27 12:11:32 51°27.254 2°50.188 -999 -999 -999 -999
2007-09-27 12:12:33 51°27.267 2°50.536 -999 -999 -999 -999
2007-09-27 12:13:33 51°27.267 2°50.881 -999 -999 -999 -999
2007-09-27 12:14:32 51°27.204 2°51.197 -999 -999 -999 -999
2007-09-27 12:15:33 51°27.065 2°51.438 -999 -999 -999 -999
2007-09-27 12:16:33 51°26.883 2°51.541 -999 -999 -999 -999
2007-09-27 12:17:33 51°26.689 2°51.582 -999 -999 -999 -999
2007-09-27 12:18:33 51°26.496 2°51.637 -999 -999 -999 -999
2007-09-27 12:19:32 51°26.306 2°51.706 -999 -999 -999 -999
2007-09-27 12:20:32 51°26.118 2°51.779 -999 -999 -999 -999
2007-09-27 12:21:32 51°25.93 2°51.847 -999 -999 -999 -999
2007-09-27 12:22:32 51°25.74 2°51.874 -999 -999 -999 -999
2007-09-27 12:23:32 51°25.553 2°51.863 -999 -999 -999 -999
2007-09-27 12:24:32 51°25.367 2°51.808 -999 -999 -999 -999
2007-09-27 12:25:32 51°25.195 2°51.706 -999 -999 -999 -999
2007-09-27 12:26:32 51°25.028 2°51.596 -999 -999 -999 -999
2007-09-27 12:27:32 51°24.855 2°51.489 -999 -999 -999 -999
2007-09-27 12:28:33 51°24.684 2°51.381 -999 -999 -999 -999
2007-09-27 12:29:32 51°24.514 2°51.273 -999 -999 -999 -999
2007-09-27 12:30:33 51°24.338 2°51.173 -999 -999 -999 -999
2007-09-27 12:31:32 51°24.167 2°51.079 -999 -999 -999 -999
2007-09-27 12:32:32 51°24.002 2°50.962 -999 -999 -999 -999
2007-09-27 12:33:31 51°23.835 2°50.844 -999 -999 -999 -999
2007-09-27 12:34:32 51°23.668 2°50.721 -999 -999 -999 -999
2007-09-27 12:35:33 51°23.497 2°50.594 -999 -999 -999 -999
2007-09-27 12:36:33 51°23.331 2°50.469 -999 -999 -999 -999
2007-09-27 12:37:33 51°23.162 2°50.346 -999 -999 -999 -999
2007-09-27 12:38:32 51°22.994 2°50.255 -999 -999 -999 -999
2007-09-27 12:39:32 51°22.81 2°50.258 -999 -999 -999 -999
2007-09-27 12:40:32 51°22.63 2°50.207 -999 -999 -999 -999
2007-09-27 12:41:33 51°22.454 2°50.103 -999 -999 -999 -999
2007-09-27 12:42:33 51°22.294 2°49.964 -999 -999 -999 -999
2007-09-27 12:43:32 51°22.154 2°49.796 -999 -999 -999 -999
2007-09-27 12:44:32 51°22.011 2°49.624 -999 -999 -999 -999
2007-09-27 12:45:32 51°21.869 2°49.454 -999 -999 -999 -999
2007-09-27 12:46:32 51°21.726 2°49.278 -999 -999 -999 -999
2007-09-27 12:47:32 51°21.584 2°49.103 -999 -999 -999 -999
2007-09-27 12:48:32 51°21.445 2°48.923 -999 -999 -999 -999
2007-09-27 12:49:32 51°21.3 2°48.75 -999 -999 -999 -999
2007-09-27 12:50:32 51°21.156 2°48.574 -999 -999 -999 -999
2007-09-27 12:51:32 51°21.011 2°48.401 -999 -999 -999 -999
2007-09-27 12:52:32 51°20.869 2°48.222 -999 -999 -999 -999
2007-09-27 12:53:32 51°20.726 2°48.043 -999 -999 -999 -999
2007-09-27 12:54:32 51°20.583 2°47.862 -999 -999 -999 -999
2007-09-27 12:55:32 51°20.441 2°47.679 -999 -999 -999 -999
2007-09-27 12:56:32 51°20.301 2°47.501 -999 -999 -999 -999
2007-09-27 12:57:32 51°20.151 2°47.33 -999 -999 -999 -999
2007-09-27 12:58:32 51°19.998 2°47.173 -999 -999 -999 -999
2007-09-27 12:59:32 51°19.842 2°47.027 -999 -999 -999 -999
2007-09-27 13:00:32 51°19.684 2°46.886 -999 -999 -999 -999
2007-09-27 13:01:32 51°19.526 2°46.743 -999 -999 -999 -999
2007-09-27 13:02:32 51°19.374 2°46.593 -999 -999 -999 -999
2007-09-27 13:03:32 51°19.22 2°46.447 -999 -999 -999 -999
2007-09-27 13:04:32 51°19.065 2°46.301 -999 -999 -999 -999
2007-09-27 13:05:33 51°18.908 2°46.146 -999 -999 -999 -999
2007-09-27 13:06:32 51°18.757 2°45.997 -999 -999 -999 -999
2007-09-27 13:07:33 51°18.601 2°45.844 -999 -999 -999 -999
2007-09-27 13:08:32 51°18.449 2°45.699 -999 -999 -999 -999
2007-09-27 13:09:33 51°18.291 2°45.546 -999 -999 -999 -999
2007-09-27 13:10:32 51°18.136 2°45.397 -999 -999 -999 -999
2007-09-27 13:11:32 51°17.976 2°45.249 -999 -999 -999 -999
2007-09-27 13:12:32 51°17.821 2°45.102 -999 -999 -999 -999
2007-09-27 13:13:32 51°17.666 2°44.949 -999 -999 -999 -999
2007-09-27 13:14:32 51°17.511 2°44.796 -999 -999 -999 -999
2007-09-27 13:15:32 51°17.354 2°44.646 -999 -999 -999 -999
2007-09-27 13:16:32 51°17.196 2°44.499 -999 -999 -999 -999
2007-09-27 13:17:32 51°17.03 2°44.372 -999 -999 -999 -999
2007-09-27 13:18:32 51°16.864 2°44.245 -999 -999 -999 -999
2007-09-27 13:19:32 51°16.7 2°44.116 -999 -999 -999 -999
2007-09-27 13:20:32 51°16.536 2°43.985 -999 -999 -999 -999
2007-09-27 13:21:32 51°16.372 2°43.858 -999 -999 -999 -999
2007-09-27 13:22:32 51°16.206 2°43.728 -999 -999 -999 -999
2007-09-27 13:23:32 51°16.043 2°43.592 -999 -999 -999 -999
2007-09-27 13:24:32 51°15.875 2°43.468 -999 -999 -999 -999
2007-09-27 13:25:32 51°15.701 2°43.373 -999 -999 -999 -999
2007-09-27 13:26:32 51°15.525 2°43.279 -999 -999 -999 -999
2007-09-27 13:27:32 51°15.347 2°43.191 -999 -999 -999 -999
2007-09-27 13:28:32 51°15.17 2°43.097 -999 -999 -999 -999
2007-09-27 13:29:32 51°14.982 2°43.082 -999 -999 -999 -999
2007-09-27 13:30:32 51°14.81 2°43.249 -999 -999 -999 -999
2007-09-27 13:31:32 51°14.684 2°43.517 -999 -999 -999 -999
2007-09-27 13:32:32 51°14.64 2°43.854 -999 -999 -999 -999
2007-09-27 13:33:32 51°14.681 2°44.193 -999 -999 -999 -999
2007-09-27 13:34:32 51°14.753 2°44.522 -999 -999 -999 -999
2007-09-27 13:35:32 51°14.802 2°44.867 -999 -999 -999 -999
2007-09-27 13:36:32 51°14.844 2°45.214 -999 -999 -999 -999
2007-09-27 13:37:32 51°14.874 2°45.561 -999 -999 -999 -999
2007-09-27 13:38:32 51°14.903 2°45.902 -999 -999 -999 -999
2007-09-27 13:39:32 51°14.931 2°46.242 -999 -999 -999 -999
2007-09-27 13:40:32 51°14.958 2°46.581 -999 -999 -999 -999
2007-09-27 13:41:32 51°14.981 2°46.92 -999 -999 -999 -999
2007-09-27 13:42:32 51°15.006 2°47.258 -999 -999 -999 -999
2007-09-27 13:43:32 51°15.032 2°47.602 -999 -999 -999 -999
2007-09-27 13:44:32 51°15.057 2°47.949 -999 -999 -999 -999
2007-09-27 13:45:32 51°15.024 2°48.288 -999 -999 -999 -999
2007-09-27 13:46:32 51°14.993 2°48.623 -999 -999 -999 -999
2007-09-27 13:47:32 51°14.964 2°48.956 -999 -999 -999 -999
2007-09-27 13:48:32 51°14.931 2°49.292 -999 -999 -999 -999
2007-09-27 13:49:32 51°14.905 2°49.633 -999 -999 -999 -999
2007-09-27 13:50:32 51°14.878 2°49.977 -999 -999 -999 -999
2007-09-27 13:51:32 51°14.849 2°50.315 -999 -999 -999 -999
2007-09-27 13:52:32 51°14.824 2°50.658 -999 -999 -999 -999
2007-09-27 13:53:32 51°14.799 2°50.988 -999 -999 -999 -999
2007-09-27 13:54:32 51°14.774 2°51.317 -999 -999 -999 -999
2007-09-27 13:55:32 51°14.748 2°51.655 -999 -999 -999 -999
2007-09-27 13:56:32 51°14.716 2°51.992 -999 -999 -999 -999
2007-09-27 13:57:32 51°14.686 2°52.325 -999 -999 -999 -999
2007-09-27 13:58:32 51°14.661 2°52.661 -999 -999 -999 -999
2007-09-27 13:59:32 51°14.634 2°52.996 -999 -999 -999 -999
2007-09-27 14:00:32 51°14.61 2°53.336 -999 -999 -999 -999
2007-09-27 14:01:32 51°14.568 2°53.668 -999 -999 -999 -999
2007-09-27 14:02:32 51°14.534 2°53.974 -999 -999 -999 -999
2007-09-27 14:03:32 51°14.489 2°54.283 -999 -999 -999 -999
2007-09-27 14:04:32 51°14.439 2°54.608 -999 -999 -999 -999
2007-09-27 14:05:32 51°14.378 2°54.939 -999 -999 -999 -999
2007-09-27 14:06:36 51°14.271 2°55.229 -999 -999 -999 -999
2007-09-27 14:07:36 51°14.15 2°55.389 -999 -999 -999 -999
2007-09-27 14:08:36 51°14.049 2°55.467 -999 -999 -999 -999
2007-09-27 14:09:36 51°13.952 2°55.538 -999 -999 -999 -999
2007-09-27 14:10:35 51°13.855 2°55.608 -999 -999 -999 -999
2007-09-27 14:11:34 51°13.77 2°55.681 -999 -999 -999 -999
2007-09-27 14:12:32 51°13.704 2°55.78 -999 -999 -999 -999
2007-09-27 14:13:36 51°13.656 2°55.891 -999 -999 -999 -999
2007-09-27 14:14:36 51°13.619 2°55.991 -999 -999 -999 -999
2007-09-27 14:15:36 51°13.606 2°56.071 -999 -999 -999 -999
2007-09-27 14:16:36 51°13.601 2°56.096 -999 -999 -999 -999